KUG03V OMDB-OKKK

Flight info

Callsign KUG03V
Flight time N/A
Altitude 38000
Route RIDAP M557 TUMAK M600 KUMBO A453 DEBTI
Aircraft A346/H-SDE2E3FGHIJ3J4J5M1RWXY/LB1D1

Departure

Time 2026-05-06 22:48
Airport Dubai International Airport (OMDB)

Arrival

Time N/A
Airport Kuwait International Airport (OKKK)
Time Latitude Longitude Altitude Speed Heading
2026-05-06 22:26 25.23607 55.38868 66 ft 0 kts 211°
2026-05-06 22:38 25.23614 55.38872 66 ft 2 kts 203°
2026-05-06 22:38 25.23628 55.38878 66 ft 2 kts 198°
2026-05-06 22:39 25.23642 55.38883 66 ft 2 kts 199°
2026-05-06 22:39 25.23656 55.38889 65 ft 2 kts 201°
2026-05-06 22:39 25.23670 55.38895 65 ft 2 kts 201°
2026-05-06 22:39 25.23684 55.38900 65 ft 2 kts 201°
2026-05-06 22:40 25.23697 55.38909 66 ft 2 kts 237°
2026-05-06 22:40 25.23701 55.38924 66 ft 2 kts 272°
2026-05-06 22:40 25.23698 55.38936 66 ft 0 kts 300°
2026-05-06 22:40 25.23696 55.38941 66 ft 0 kts 302°
2026-05-06 22:42 25.23696 55.38940 66 ft 1 kts 302°
2026-05-06 22:42 25.23715 55.38906 65 ft 9 kts 301°
2026-05-06 22:43 25.23763 55.38818 64 ft 15 kts 300°
2026-05-06 22:43 25.23820 55.38714 64 ft 17 kts 301°
2026-05-06 22:43 25.23883 55.38600 64 ft 14 kts 301°
2026-05-06 22:43 25.23924 55.38559 64 ft 8 kts 357°
2026-05-06 22:44 25.23996 55.38589 64 ft 13 kts 29°
2026-05-06 22:44 25.24090 55.38650 64 ft 17 kts 30°
2026-05-06 22:44 25.24175 55.38705 64 ft 10 kts 26°
2026-05-06 22:44 25.24244 55.38678 64 ft 13 kts 314°
2026-05-06 22:45 25.24331 55.38628 64 ft 15 kts 347°
2026-05-06 22:45 25.24443 55.38600 64 ft 17 kts 346°
2026-05-06 22:45 25.24567 55.38567 64 ft 19 kts 346°
2026-05-06 22:45 25.24691 55.38535 64 ft 13 kts 346°
2026-05-06 22:46 25.24766 55.38469 63 ft 15 kts 304°
2026-05-06 22:46 25.24830 55.38355 61 ft 18 kts 301°
2026-05-06 22:46 25.24888 55.38251 60 ft 16 kts 301°
2026-05-06 22:46 25.24931 55.38168 60 ft 8 kts 286°
2026-05-06 22:47 25.24899 55.38109 59 ft 11 kts 221°
2026-05-06 22:47 25.24828 55.38059 60 ft 10 kts 214°
2026-05-06 22:47 25.24823 55.38000 60 ft 10 kts 302°
2026-05-06 22:47 25.24934 55.37799 57 ft 66 kts 301°
2026-05-06 22:48 25.25306 55.37128 54 ft 136 kts 301°
2026-05-06 22:48 25.25897 55.36065 139 ft 181 kts 302°
2026-05-06 22:48 25.26560 55.34884 755 ft 183 kts 302°
2026-05-06 22:48 25.27220 55.33696 1438 ft 185 kts 301°
2026-05-06 22:49 25.27890 55.32488 2036 ft 187 kts 302°
2026-05-06 22:49 25.28554 55.31222 2346 ft 199 kts 293°
2026-05-06 22:49 25.28895 55.29669 2617 ft 215 kts 280°
2026-05-06 22:49 25.29112 55.27981 2855 ft 233 kts 278°
2026-05-06 22:50 25.29346 55.26149 3138 ft 251 kts 278°
2026-05-06 22:50 25.29622 55.24161 3480 ft 268 kts 279°
2026-05-06 22:50 25.29922 55.22124 4027 ft 274 kts 279°
2026-05-06 22:50 25.30244 55.20026 4653 ft 277 kts 279°
2026-05-06 22:51 25.30572 55.17926 5208 ft 282 kts 279°
2026-05-06 22:51 25.30913 55.15751 5567 ft 296 kts 278°
2026-05-06 22:51 25.31270 55.13476 5918 ft 310 kts 278°
2026-05-06 22:51 25.31647 55.11077 6273 ft 317 kts 278°
2026-05-06 22:52 25.32027 55.08675 6839 ft 322 kts 279°
2026-05-06 22:52 25.32412 55.06261 7518 ft 322 kts 278°
2026-05-06 22:52 25.32803 55.03799 8136 ft 325 kts 278°
2026-05-06 22:52 25.33192 55.01349 8713 ft 328 kts 278°
2026-05-06 22:53 25.33583 54.98876 9271 ft 330 kts 278°
2026-05-06 22:53 25.33980 54.96357 9814 ft 333 kts 278°
2026-05-06 22:53 25.34377 54.93842 10317 ft 337 kts 278°
2026-05-06 22:53 25.34839 54.91264 10577 ft 350 kts 282°
2026-05-06 22:54 25.35485 54.88589 10830 ft 365 kts 286°
2026-05-06 22:54 25.36249 54.85870 11096 ft 379 kts 287°
2026-05-06 22:54 25.37050 54.83080 11574 ft 386 kts 287°
2026-05-06 22:54 25.37859 54.80270 12255 ft 388 kts 288°
2026-05-06 22:55 25.38682 54.77397 12897 ft 391 kts 288°
2026-05-06 22:55 25.39500 54.74535 13444 ft 396 kts 289°
2026-05-06 22:55 25.40330 54.71632 13972 ft 403 kts 289°
2026-05-06 22:55 25.41188 54.68634 14515 ft 408 kts 289°
2026-05-06 22:56 25.42044 54.65646 15079 ft 413 kts 289°
2026-05-06 22:56 25.42907 54.62624 15665 ft 417 kts 289°
2026-05-06 22:56 25.43786 54.59590 16345 ft 417 kts 289°
2026-05-06 22:56 25.44700 54.56515 16982 ft 419 kts 289°
2026-05-06 22:57 25.45611 54.53457 17557 ft 423 kts 289°
2026-05-06 22:57 25.46530 54.50372 18143 ft 427 kts 289°
2026-05-06 22:57 25.47450 54.47268 18730 ft 429 kts 289°
2026-05-06 22:57 25.48387 54.44099 19317 ft 432 kts 288°
2026-05-06 22:58 25.49315 54.40947 19889 ft 435 kts 288°
2026-05-06 22:58 25.50247 54.37779 20446 ft 438 kts 288°
2026-05-06 22:58 25.51200 54.34536 20998 ft 441 kts 288°
2026-05-06 22:58 25.52145 54.31316 21525 ft 444 kts 288°
2026-05-06 22:59 25.53090 54.28094 22045 ft 446 kts 287°
2026-05-06 22:59 25.54054 54.24810 22576 ft 448 kts 287°
2026-05-06 22:59 25.55013 54.21546 23098 ft 449 kts 287°
2026-05-06 22:59 25.55973 54.18280 23614 ft 451 kts 287°
2026-05-06 23:00 25.56948 54.14956 24135 ft 452 kts 287°
2026-05-06 23:00 25.57911 54.11669 24769 ft 450 kts 287°
2026-05-06 23:00 25.58863 54.08413 25451 ft 446 kts 287°
2026-05-06 23:00 25.59823 54.05116 25903 ft 450 kts 286°
2026-05-06 23:01 25.60773 54.01804 26181 ft 458 kts 286°
2026-05-06 23:01 25.61731 53.98444 26677 ft 460 kts 286°
2026-05-06 23:01 25.62694 53.95065 27380 ft 456 kts 285°
2026-05-06 23:01 25.63636 53.91755 28103 ft 450 kts 285°
2026-05-06 23:02 25.64565 53.88487 28777 ft 447 kts 285°
2026-05-06 23:02 25.65485 53.85244 29410 ft 444 kts 285°
2026-05-06 23:02 25.66414 53.81968 30048 ft 441 kts 285°
2026-05-06 23:02 25.67320 53.78768 30694 ft 438 kts 284°
2026-05-06 23:03 25.68220 53.75584 31375 ft 435 kts 284°
2026-05-06 23:03 25.69125 53.72384 32079 ft 431 kts 284°
2026-05-06 23:03 25.70007 53.69259 32775 ft 428 kts 284°
2026-05-06 23:03 25.70883 53.66147 33416 ft 426 kts 284°
2026-05-06 23:04 25.71768 53.62994 33918 ft 428 kts 284°
2026-05-06 23:04 25.72649 53.59849 34390 ft 431 kts 284°
2026-05-06 23:04 25.73587 53.56499 34892 ft 434 kts 284°
2026-05-06 23:04 25.74488 53.53280 35343 ft 436 kts 284°
2026-05-06 23:05 25.75385 53.50077 35755 ft 438 kts 284°
2026-05-06 23:05 25.76287 53.46868 36169 ft 439 kts 284°
2026-05-06 23:05 25.77196 53.43639 36585 ft 439 kts 284°
2026-05-06 23:05 25.78112 53.40374 36908 ft 442 kts 284°
2026-05-06 23:06 25.79025 53.37117 37214 ft 444 kts 284°
2026-05-06 23:06 25.79938 53.33854 37520 ft 446 kts 284°
2026-05-06 23:06 25.80873 53.30503 37824 ft 448 kts 284°
2026-05-06 23:07 25.82719 53.23890 37947 ft 451 kts 284°
2026-05-06 23:07 25.84802 53.17291 37969 ft 453 kts 288°
2026-05-06 23:08 25.87326 53.10930 37890 ft 454 kts 290°
2026-05-06 23:08 25.89926 53.04543 37857 ft 454 kts 290°
2026-05-06 23:09 25.92529 52.98140 37861 ft 454 kts 290°
2026-05-06 23:09 25.95136 52.91711 37865 ft 455 kts 290°
2026-05-06 23:10 25.97713 52.85342 37874 ft 455 kts 290°
2026-05-06 23:10 26.00314 52.78907 37878 ft 455 kts 290°
2026-05-06 23:11 26.02987 52.72569 37875 ft 456 kts 292°
2026-05-06 23:11 26.05827 52.66268 37873 ft 454 kts 292°
2026-05-06 23:12 26.08657 52.59979 37876 ft 453 kts 292°
2026-05-06 23:12 26.11454 52.53745 37877 ft 453 kts 292°
2026-05-06 23:13 26.14288 52.47465 37878 ft 453 kts 292°
2026-05-06 23:13 26.17101 52.41227 37879 ft 454 kts 292°
2026-05-06 23:14 26.19935 52.34922 37879 ft 454 kts 291°
2026-05-06 23:14 26.22745 52.28633 37881 ft 454 kts 291°
2026-05-06 23:15 26.25491 52.22291 37878 ft 454 kts 291°
2026-05-06 23:15 26.28219 52.15964 37872 ft 454 kts 291°
2026-05-06 23:16 26.30963 52.09603 37865 ft 454 kts 291°
2026-05-06 23:16 26.33687 52.03296 37864 ft 454 kts 291°
2026-05-06 23:17 26.36431 51.96941 37865 ft 454 kts 290°
2026-05-06 23:17 26.38857 51.90445 37867 ft 451 kts 286°
2026-05-06 23:18 26.41049 51.83935 37868 ft 451 kts 286°
2026-05-06 23:18 26.43257 51.77352 37868 ft 451 kts 286°
2026-05-06 23:19 26.45443 51.70821 37867 ft 450 kts 286°
2026-05-06 23:19 26.47621 51.64310 37866 ft 450 kts 286°
2026-05-06 23:20 26.49797 51.57792 37865 ft 450 kts 286°
2026-05-06 23:20 26.51985 51.51220 37865 ft 449 kts 286°
2026-05-06 23:21 26.54162 51.44662 37866 ft 448 kts 285°
2026-05-06 23:21 26.56307 51.38182 37864 ft 448 kts 285°
2026-05-06 23:22 26.58463 51.31662 37861 ft 443 kts 285°
2026-05-06 23:22 26.60389 51.25251 37855 ft 428 kts 277°
2026-05-06 23:23 26.60756 51.18739 37510 ft 418 kts 263°
2026-05-06 23:23 26.60345 51.15556 36997 ft 416 kts 257°
2026-05-06 23:23 26.59786 51.12448 36688 ft 408 kts 257°
2026-05-06 23:23 26.59221 51.09351 36111 ft 403 kts 256°
2026-05-06 23:24 26.58663 51.06312 35366 ft 402 kts 256°
2026-05-06 23:24 26.58106 51.03278 34518 ft 402 kts 257°
2026-05-06 23:24 26.57550 51.00249 33444 ft 403 kts 257°
2026-05-06 23:24 26.56993 50.97217 32183 ft 405 kts 257°
2026-05-06 23:25 26.56425 50.94125 30796 ft 408 kts 257°
2026-05-06 23:25 26.55866 50.91087 29356 ft 411 kts 257°
2026-05-06 23:25 26.55289 50.87951 28115 ft 410 kts 257°
2026-05-06 23:25 26.54728 50.84902 27208 ft 400 kts 257°
2026-05-06 23:26 26.54180 50.81922 26063 ft 394 kts 257°
2026-05-06 23:26 26.53637 50.78975 24820 ft 391 kts 257°
2026-05-06 23:26 26.53091 50.76017 23528 ft 388 kts 257°
2026-05-06 23:26 26.52557 50.73126 22318 ft 384 kts 257°
2026-05-06 23:27 26.52023 50.70249 21144 ft 381 kts 257°
2026-05-06 23:27 26.51488 50.67369 19974 ft 377 kts 257°
2026-05-06 23:27 26.50964 50.64559 18833 ft 374 kts 258°
2026-05-06 23:27 26.50444 50.61756 17702 ft 371 kts 258°
2026-05-06 23:28 26.49922 50.58944 16570 ft 369 kts 258°
2026-05-06 23:28 26.49410 50.56197 15593 ft 362 kts 257°
2026-05-06 23:28 26.48917 50.53519 15047 ft 345 kts 257°
2026-05-06 23:28 26.48441 50.50946 14638 ft 327 kts 257°
2026-05-06 23:29 26.47986 50.48534 14271 ft 311 kts 257°
2026-05-06 23:29 26.47556 50.46226 13704 ft 304 kts 257°
2026-05-06 23:29 26.47124 50.43939 13006 ft 303 kts 257°
2026-05-06 23:29 26.46691 50.41638 12314 ft 301 kts 257°
2026-05-06 23:30 26.46266 50.39381 11663 ft 299 kts 258°
2026-05-06 23:30 26.45845 50.37141 11022 ft 296 kts 258°
2026-05-06 23:30 26.45428 50.34929 10367 ft 292 kts 258°
2026-05-06 23:30 26.45012 50.32714 9685 ft 289 kts 258°
2026-05-06 23:31 26.44604 50.30545 9019 ft 287 kts 258°
2026-05-06 23:31 26.44199 50.28390 8372 ft 285 kts 258°
2026-05-06 23:31 26.43791 50.26223 7728 ft 283 kts 258°
2026-05-06 23:31 26.43389 50.24092 7099 ft 282 kts 258°
2026-05-06 23:32 26.42992 50.21981 6475 ft 280 kts 258°
2026-05-06 23:32 26.42590 50.19856 5852 ft 278 kts 258°
2026-05-06 23:32 26.42196 50.17778 5311 ft 274 kts 258°
2026-05-06 23:32 26.41797 50.15677 5136 ft 277 kts 258°
2026-05-06 23:33 26.41399 50.13585 5016 ft 277 kts 258°
2026-05-06 23:33 26.41001 50.11494 4787 ft 277 kts 258°
2026-05-06 23:33 26.40601 50.09384 4517 ft 275 kts 258°
2026-05-06 23:33 26.40207 50.07313 4238 ft 274 kts 259°
2026-05-06 23:34 26.39810 50.05232 3943 ft 272 kts 259°
2026-05-06 23:34 26.39421 50.03187 3649 ft 271 kts 259°
2026-05-06 23:34 26.39027 50.01124 3349 ft 269 kts 260°
2026-05-06 23:34 26.38645 49.99105 3053 ft 268 kts 260°
2026-05-06 23:35 26.38262 49.97121 2964 ft 257 kts 261°
2026-05-06 23:35 26.37896 49.95214 2956 ft 243 kts 261°
2026-05-06 23:35 26.37555 49.93437 2945 ft 230 kts 262°
2026-05-06 23:35 26.37227 49.91724 2873 ft 221 kts 262°
2026-05-06 23:36 26.36910 49.90057 2750 ft 220 kts 262°
2026-05-06 23:36 26.36589 49.88377 2603 ft 220 kts 262°
2026-05-06 23:36 26.36272 49.86717 2342 ft 216 kts 263°
2026-05-06 23:36 26.36128 49.85135 2057 ft 196 kts 286°
2026-05-06 23:37 26.36743 49.83937 1851 ft 172 kts 326°
2026-05-06 23:37 26.37797 49.83474 1598 ft 157 kts 350°
2026-05-06 23:37 26.38854 49.83273 1303 ft 153 kts 352°
2026-05-06 23:37 26.39916 49.83059 1149 ft 153 kts 350°
2026-05-06 23:38 26.40954 49.82780 972 ft 153 kts 347°
2026-05-06 23:38 26.41982 49.82481 756 ft 152 kts 348°
2026-05-06 23:38 26.42997 49.82179 561 ft 151 kts 348°
2026-05-06 23:38 26.44020 49.81862 369 ft 150 kts 348°
2026-05-06 23:39 26.45024 49.81553 178 ft 149 kts 348°
2026-05-06 23:39 26.45994 49.81260 83 ft 132 kts 346°
2026-05-06 23:39 26.46713 49.81037 84 ft 86 kts 345°
2026-05-06 23:39 26.47162 49.80963 81 ft 46 kts 13°
2026-05-06 23:40 26.47389 49.81011 81 ft 25 kts
2026-05-06 23:40 26.47567 49.80983 81 ft 26 kts 345°
2026-05-06 23:40 26.47753 49.80928 80 ft 28 kts 344°
2026-05-06 23:40 26.47896 49.80883 78 ft 13 kts 344°
2026-05-06 23:41 26.47959 49.80906 77 ft 10 kts 53°
2026-05-06 23:41 26.47987 49.80989 78 ft 12 kts 74°
2026-05-06 23:41 26.47996 49.81093 78 ft 11 kts 90°
2026-05-06 23:41 26.47998 49.81165 78 ft 6 kts 112°
2026-05-06 23:42 26.47951 49.81205 79 ft 10 kts 158°
2026-05-06 23:42 26.47898 49.81224 80 ft 0 kts 163°